• In Kazakhstan
  • List of Countries
  • For 7 days
  • Water Temperature
  • Satellite Maps
  • Weather Map
  • News
  • Weather Widgets
  • user-avatar
    Login

    Hourly Weather Omaha

    Today, 24 November, Friday

    Time Temperature Precipitation Wind Pressure Humidity
    00:00 +12°C° 0 mm 4 mps 727 mmHg 71%
    01:00 +12°C° 0 mm 5 mps 726 mmHg 73%
    02:00 +12°C° 0 mm 5 mps 725 mmHg 74%
    03:00 +10°C° 0 mm 5 mps 725 mmHg 75%
    04:00 +10°C° 0 mm 5 mps 724 mmHg 75%
    05:00 +11°C° 0 mm 4 mps 724 mmHg 75%
    06:00 +11°C° 0 mm 4 mps 723 mmHg 75%
    07:00 +11°C° 0 mm 4 mps 723 mmHg 69%
    08:00 +12°C° 0 mm 4 mps 723 mmHg 64%
    09:00 +13°C° 0 mm 4 mps 722 mmHg 58%
    10:00 +15°C° 0 mm 4 mps 722 mmHg 52%
    11:00 +17°C° 0 mm 4 mps 723 mmHg 45%
    12:00 +19°C° 0 mm 4 mps 723 mmHg 38%
    13:00 +20°C° 0 mm 5 mps 723 mmHg 37%
    14:00 +20°C° 0 mm 6 mps 723 mmHg 36%
    15:00 +21°C° 0 mm 7 mps 724 mmHg 35%
    16:00 +19°C° 0 mm 6 mps 725 mmHg 37%
    17:00 +16°C° 0 mm 5 mps 726 mmHg 40%
    18:00 +14°C° 0 mm 5 mps 727 mmHg 42%
    19:00 +13°C° 0 mm 5 mps 728 mmHg 44%
    20:00 +12°C° 0 mm 5 mps 729 mmHg 46%
    21:00 +10°C° 0 mm 5 mps 730 mmHg 48%
    22:00 +10°C° 0 mm 4 mps 730 mmHg 51%
    23:00 +9°C° 0 mm 3 mps 731 mmHg 54%

    Tomorrow, 25 November, Saturday

    Time Temperature Precipitation Wind Pressure Humidity
    00:00 +8°C° 0 mm 2 mps 732 mmHg 58%
    01:00 +8°C° 0 mm 2 mps 733 mmHg 58%
    02:00 +7°C° 0 mm 2 mps 733 mmHg 59%
    03:00 +7°C° 0 mm 2 mps 734 mmHg 59%
    04:00 +7°C° 0 mm 2 mps 734 mmHg 59%
    05:00 +6°C° 0 mm 2 mps 735 mmHg 60%
    06:00 +6°C° 0 mm 2 mps 735 mmHg 60%
    07:00 +6°C° 0 mm 2 mps 736 mmHg 58%
    08:00 +7°C° 0 mm 2 mps 736 mmHg 55%
    09:00 +9°C° 0 mm 1 mps 737 mmHg 53%
    10:00 +10°C° 0 mm 2 mps 737 mmHg 47%
    11:00 +13°C° 0 mm 2 mps 737 mmHg 41%
    12:00 +14°C° 0 mm 2 mps 737 mmHg 35%
    13:00 +14°C° 0 mm 3 mps 737 mmHg 34%
    14:00 +14°C° 0 mm 3 mps 737 mmHg 34%
    15:00 +15°C° 0 mm 4 mps 736 mmHg 33%
    16:00 +13°C° 0 mm 3 mps 737 mmHg 37%
    17:00 +12°C° 0 mm 3 mps 737 mmHg 41%
    18:00 +10°C° 0 mm 2 mps 737 mmHg 45%
    19:00 +9°C° 0 mm 2 mps 737 mmHg 46%
    20:00 +9°C° 0 mm 2 mps 737 mmHg 46%
    21:00 +8°C° 0 mm 2 mps 737 mmHg 47%
    22:00 +8°C° 0 mm 2 mps 737 mmHg 47%
    23:00 +8°C° 0 mm 2 mps 737 mmHg 47%

    Day after tomorrow, 26 November, Sunday

    Time Temperature Precipitation Wind Pressure Humidity
    00:00 +7°C° 0 mm 2 mps 737 mmHg 48%
    01:00 +7°C° 0 mm 2 mps 737 mmHg 49%
    02:00 +7°C° 0 mm 2 mps 737 mmHg 51%
    03:00 +6°C° 0 mm 2 mps 737 mmHg 52%
    04:00 +6°C° 0 mm 2 mps 737 mmHg 54%
    05:00 +6°C° 0 mm 2 mps 737 mmHg 56%
    06:00 +7°C° 0 mm 1 mps 737 mmHg 59%
    07:00 +8°C° 0 mm 1 mps 737 mmHg 58%
    08:00 +7°C° 0 mm 2 mps 737 mmHg 57%
    09:00 +8°C° 0 mm 2 mps 737 mmHg 56%
    10:00 +10°C° 0 mm 2 mps 737 mmHg 52%
    11:00 +12°C° 0 mm 2 mps 736 mmHg 47%
    12:00 +14°C° 0 mm 1 mps 736 mmHg 43%
    13:00 +15°C° 0 mm 1 mps 735 mmHg 42%
    14:00 +15°C° 0 mm 1 mps 735 mmHg 42%
    15:00 +16°C° 0 mm 1 mps 734 mmHg 41%
    16:00 +14°C° 0 mm 1 mps 734 mmHg 46%
    17:00 +13°C° 0 mm 1 mps 734 mmHg 52%
    18:00 +11°C° 0 mm 1 mps 734 mmHg 57%
    19:00 +11°C° 0 mm 1 mps 734 mmHg 59%
    20:00 +9°C° 0 mm 2 mps 734 mmHg 61%
    21:00 +9°C° 0 mm 2 mps 734 mmHg 63%
    22:00 +9°C° 0 mm 2 mps 734 mmHg 64%
    23:00 +8°C° 0 mm 2 mps 734 mmHg 65%

    27 November, Monday

    Time Temperature Precipitation Wind Pressure Humidity
    00:00 +8°C° 0 mm 3 mps 733 mmHg 66%
    01:00 +8°C° 0 mm 3 mps 733 mmHg 66%
    02:00 +8°C° 0 mm 3 mps 732 mmHg 66%
    03:00 +8°C° 0 mm 3 mps 732 mmHg 67%
    04:00 +8°C° 0 mm 3 mps 731 mmHg 70%
    05:00 +8°C° 0 mm 3 mps 731 mmHg 73%
    06:00 +7°C° 0 mm 4 mps 730 mmHg 76%
    07:00 +7°C° 0 mm 4 mps 730 mmHg 75%
    08:00 +8°C° 0 mm 5 mps 729 mmHg 73%
    09:00 +9°C° 0 mm 6 mps 729 mmHg 72%
    10:00 +11°C° 0 mm 6 mps 728 mmHg 65%
    11:00 +14°C° 0 mm 7 mps 727 mmHg 57%
    12:00 +16°C° 0 mm 7 mps 727 mmHg 50%
    13:00 +17°C° 0 mm 7 mps 726 mmHg 48%
    14:00 +18°C° 0 mm 7 mps 725 mmHg 46%
    15:00 +20°C° 0 mm 7 mps 724 mmHg 44%
    16:00 +19°C° 0 mm 6 mps 724 mmHg 48%
    17:00 +17°C° 0 mm 5 mps 724 mmHg 53%
    18:00 +15°C° 0 mm 4 mps 724 mmHg 58%
    19:00 +15°C° 0 mm 4 mps 724 mmHg 61%
    20:00 +14°C° 0 mm 4 mps 724 mmHg 64%
    21:00 +14°C° 0 mm 4 mps 724 mmHg 67%
    22:00 +13°C° 0 mm 4 mps 724 mmHg 71%
    23:00 +12°C° 0 mm 3 mps 724 mmHg 74%

    28 November, Tuesday

    Time Temperature Precipitation Wind Pressure Humidity
    00:00 +12°C° 0 mm 3 mps 725 mmHg 78%
    01:00 +11°C° 0 mm 4 mps 725 mmHg 73%
    02:00 +11°C° 0 mm 4 mps 726 mmHg 68%
    03:00 +9°C° 0 mm 5 mps 726 mmHg 63%
    04:00 +9°C° 0 mm 6 mps 727 mmHg 59%
    05:00 +8°C° 0 mm 6 mps 727 mmHg 56%
    06:00 +8°C° 0 mm 6 mps 728 mmHg 52%
    07:00 +8°C° 0 mm 6 mps 729 mmHg 50%
    08:00 +8°C° 0 mm 6 mps 730 mmHg 47%
    09:00 +8°C° 0 mm 7 mps 731 mmHg 45%
    10:00 +9°C° 0 mm 7 mps 732 mmHg 40%
    11:00 +10°C° 0 mm 7 mps 732 mmHg 35%
    12:00 +11°C° 0 mm 7 mps 733 mmHg 30%
    13:00 +11°C° 0 mm 7 mps 733 mmHg 28%
    14:00 +11°C° 0 mm 6 mps 733 mmHg 26%
    15:00 +11°C° 0 mm 6 mps 733 mmHg 25%
    16:00 +10°C° 0 mm 5 mps 734 mmHg 28%
    17:00 +8°C° 0 mm 5 mps 735 mmHg 31%
    18:00 +7°C° 0 mm 4 mps 735 mmHg 34%
    19:00 +7°C° 0 mm 3 mps 736 mmHg 36%
    20:00 +5°C° 0 mm 3 mps 736 mmHg 39%
    21:00 +5°C° 0 mm 3 mps 737 mmHg 41%
    22:00 +4°C° 0 mm 3 mps 737 mmHg 43%
    23:00 +4°C° 0 mm 3 mps 737 mmHg 45%

    29 November, Wednesday

    Time Temperature Precipitation Wind Pressure Humidity
    00:00 +3°C° 0 mm 3 mps 737 mmHg 47%
    01:00 +3°C° 0 mm 3 mps 737 mmHg 49%
    02:00 +3°C° 0 mm 3 mps 736 mmHg 51%
    03:00 +3°C° 0 mm 2 mps 736 mmHg 53%
    04:00 +3°C° 0 mm 2 mps 736 mmHg 54%
    05:00 +3°C° 0 mm 2 mps 736 mmHg 56%
    06:00 +3°C° 0 mm 2 mps 736 mmHg 58%
    07:00 +3°C° 0 mm 2 mps 736 mmHg 57%
    08:00 +3°C° 0 mm 2 mps 736 mmHg 57%
    09:00 +3°C° 0 mm 2 mps 736 mmHg 56%
    10:00 +4°C° 0 mm 2 mps 735 mmHg 52%
    11:00 +7°C° 0 mm 1 mps 735 mmHg 47%
    12:00 +8°C° 0 mm 1 mps 735 mmHg 42%
    13:00 +8°C° 0 mm 1 mps 734 mmHg 40%
    14:00 +9°C° 0 mm 1 mps 734 mmHg 38%
    15:00 +9°C° 0 mm 1 mps 733 mmHg 36%
    16:00 +8°C° 0 mm 1 mps 733 mmHg 39%
    17:00 +7°C° 0 mm 1 mps 733 mmHg 42%
    18:00 +6°C° 0 mm 1 mps 733 mmHg 46%
    19:00 +5°C° 0 mm 1 mps 733 mmHg 47%
    20:00 +4°C° 0 mm 2 mps 732 mmHg 49%
    21:00 +4°C° 0 mm 2 mps 732 mmHg 50%
    22:00 +3°C° 0 mm 2 mps 732 mmHg 52%
    23:00 +2°C° 0 mm 3 mps 732 mmHg 53%
    Show more